Wind_Speed
10 10 10 9 8 7 8 9 9 8 9 9 9 9 8 9 8 6 4 2 2 2 2 2 2 3 3 3 3 4 4 5 5 6 6 7 7 7 6 6 5 5 5 5 4 3 3 3 3
12 12 11 11 9 9 10 10 11 10 12 13 11 10 8 9 8 7 5 3 2 2 2 3 3 3 3 4 4 4 5 5 6 6 7 7 7 7 7 7 6 6 5 5 5 4 3 2 2
14 13 13 11 10 11 12 11 11 13 16 17 16 15 13 10 9 6 4 4 3 2 3 4 4 4 4 5 5 5 6 6 7 7 7 7 7 8 8 7 7 6 6 6 6 5 4 3 3
15 14 13 11 11 11 12 12 13 16 17 20 21 19 16 12 9 6 5 5 4 3 3 4 5 5 5 5 6 6 7 8 8 8 8 8 8 8 9 8 8 7 7 7 7 6 6 5 4
15 14 13 12 11 12 13 14 15 17 19 22 22 21 19 15 9 6 6 7 6 5 4 5 6 7 7 7 7 8 9 9 9 9 9 9 9 10 10 10 10 9 9 9 8 8 7 7 6
15 14 13 11 11 12 13 15 17 19 22 24 25 23 21 17 13 11 8 8 8 7 6 6 7 8 8 8 9 10 10 11 10 11 11 11 11 11 12 12 11 11 11 10 10 10 9 9 8
15 15 14 12 11 11 13 16 18 21 24 26 26 25 22 17 14 11 9 8 8 7 6 7 8 8 9 9 10 11 12 12 12 12 12 13 14 14 14 14 14 13 13 13 12 12 11 11 10
15 15 15 14 13 14 16 18 21 24 25 27 26 24 22 18 14 11 11 9 8 7 7 7 8 10 10 11 11 12 13 13 13 13 14 15 16 16 16 17 16 16 16 16 15 14 14 13 12
14 14 15 15 16 17 19 21 23 26 27 28 28 25 22 20 16 13 11 11 9 8 8 8 9 10 11 12 13 13 13 14 14 14 14 15 17 17 18 18 19 18 18 18 17 17 16 16 15
13 13 13 14 16 17 20 21 23 26 27 28 28 25 21 20 17 15 11 11 9 8 8 9 9 10 11 12 13 13 14 14 15 15 16 16 17 18 18 19 20 20 19 19 19 19 19 18 18
12 11 12 14 15 17 18 19 21 24 26 27 25 24 21 19 17 14 12 10 10 9 9 9 10 11 10 11 13 14 15 15 15 16 16 17 17 17 17 17 18 19 19 19 20 20 20 20 20
10 11 11 12 14 16 17 18 19 20 22 24 24 22 20 18 16 14 13 12 10 9 9 9 9 9 9 10 12 12 13 14 14 15 15 16 15 15 15 15 16 17 18 18 19 19 20 20 21
10 10 11 11 13 15 16 17 18 19 19 19 19 18 17 17 17 15 13 11 11 9 10 9 9 10 10 10 10 11 11 13 14 14 14 14 13 13 13 13 14 15 16 16 16 17 18 19 21
8 9 10 11 13 15 16 16 17 18 19 18 17 16 14 13 13 13 11 9 9 9 7 8 10 9 9 10 10 10 10 11 12 12 12 11 11 11 13 13 14 13 14 15 16 17 18 19 21
7 8 10 12 14 15 15 16 16 17 18 17 15 13 12 12 12 10 9 9 8 8 9 8 8 7 8 8 8 8 9 9 9 9 9 10 10 10 11 13 14 14 15 15 16 17 18 18 19
8 9 11 12 14 15 16 14 13 14 15 15 13 11 10 9 9 10 10 9 9 9 9 8 7 8 9 8 8 8 9 9 9 9 9 9 9 10 11 13 14 15 16 17 17 18 18 19 19
9 11 12 14 15 16 14 12 12 12 13 11 9 8 6 6 7 8 8 9 8 7 8 7 6 8 8 8 8 8 8 8 8 8 9 10 10 11 12 13 15 16 17 18 19 19 19 20 20
10 12 14 14 15 15 14 13 12 11 10 9 8 6 3 3 2 3 4 5 6 6 5 5 5 7 7 7 7 8 8 8 8 9 10 10 11 12 12 13 15 16 17 18 18 19 19 20 22
11 12 13 14 14 15 13 12 11 9 9 8 6 5 3 2 0 2 2 3 4 4 4 4 5 6 5 5 6 6 7 7 8 9 10 11 11 12 12 13 13 15 16 17 17 19 20 21 22
11 12 12 13 14 14 13 12 10 8 8 6 5 3 2 1 0 2 0 2 2 3 3 4 4 4 3 4 5 5 6 7 8 9 10 10 11 11 12 12 13 14 15 16 17 18 20 21 22
10 12 13 15 14 14 12 10 8 7 7 6 5 3 2 3 2 2 1 2 1 1 2 2 2 2 3 4 4 5 6 7 7 8 9 10 11 11 12 12 13 14 14 15 16 17 18 20 21
11 11 11 12 13 11 9 7 7 6 7 7 6 3 2 3 3 3 2 1 2 1 1 1 1 2 3 3 4 5 6 7 7 7 8 9 10 11 12 13 13 14 15 16 16 17 18 19 21
11 10 9 10 10 6 5 5 7 6 6 6 5 4 4 3 4 4 3 3 2 2 2 1 1 1 2 3 5 6 6 6 7 8 9 9 10 11 13 13 14 15 16 17 17 18 19 19 20
10 9 9 9 8 6 4 4 5 6 6 4 4 3 3 4 4 5 5 4 4 4 3 3 2 3 3 4 5 6 7 7 8 9 10 10 11 13 13 14 15 16 17 18 18 19 20 21 21
10 10 10 10 8 7 5 4 4 4 4 3 3 3 4 4 4 5 5 5 4 4 4 4 4 4 4 5 6 6 7 8 10 10 11 12 13 14 15 15 16 17 18 19 19 20 21 22 22
10 10 10 10 7 7 5 4 4 3 3 4 4 3 4 4 5 5 5 5 4 4 4 4 4 5 5 6 7 7 9 10 11 11 12 13 14 16 16 17 18 19 20 21 21 22 23 23 24
8 10 10 10 9 7 4 3 2 3 4 4 4 5 4 4 4 5 4 4 4 4 4 4 4 5 6 6 7 9 10 11 12 12 13 15 16 17 19 20 21 21 22 23 24 24 25 25 25
10 10 11 11 10 7 5 4 1 2 2 3 3 4 4 4 4 4 4 3 3 3 3 4 4 5 6 7 8 10 11 12 13 14 15 17 18 20 21 22 23 24 24 25 26 26 27 28 28
12 12 12 13 12 10 8 4 3 2 2 2 2 3 3 3 3 4 4 3 3 3 3 5 5 6 7 8 9 11 12 13 14 16 17 19 20 22 23 24 25 26 27 27 28 29 30 30 30
13 14 15 15 13 12 10 7 4 4 3 2 3 3 3 2 3 3 3 3 4 4 4 5 6 7 8 9 11 12 14 15 16 18 19 21 22 24 25 26 28 28 29 30 31 32 32 33 33
Wind_Direction
311 309 305 305 305 302 308 308 302 297 296 298 287 282 283 290 299 304 298 274 299 311 305 304 306 300 299 298 305 316 321 321 320 321 323 324 325 326 327 329 330 334 337 339 345 355 11 26 32
304 302 300 298 295 297 295 300 296 303 308 299 289 286 283 284 276 280 270 262 283 304 305 310 308 296 293 294 296 303 309 310 313 312 314 316 316 315 315 316 316 317 320 321 321 325 332 346 1
301 299 296 293 289 289 292 299 301 303 302 295 296 298 293 291 276 264 255 265 252 275 289 301 299 288 283 290 295 298 301 302 305 306 305 307 308 309 310 310 308 307 306 304 304 307 309 313 317
298 296 294 289 284 289 296 299 303 304 294 294 298 299 299 294 282 265 253 254 244 259 282 293 296 290 285 287 291 295 299 296 294 296 296 299 300 301 303 305 303 302 299 297 295 296 296 297 295
295 293 290 287 283 289 296 299 302 303 296 298 301 302 302 296 284 268 262 243 229 234 264 292 291 286 283 288 291 292 295 295 288 285 286 290 292 294 296 298 297 295 294 293 292 289 286 285 284
289 285 281 279 278 288 295 295 298 298 298 299 301 302 300 297 276 265 257 239 227 230 251 276 282 283 288 291 291 293 293 291 288 282 282 283 286 289 289 290 291 289 287 289 289 288 282 279 277
281 278 272 266 265 275 284 289 293 290 294 297 300 300 300 293 272 257 241 224 225 236 251 270 280 285 291 295 294 293 292 291 289 284 281 281 283 284 283 283 284 282 282 283 284 285 282 278 274
280 274 267 259 255 261 272 278 285 286 288 292 296 297 295 289 277 266 245 233 230 240 255 266 273 283 288 290 292 291 287 286 286 284 281 279 279 279 277 278 278 278 277 277 278 281 280 277 273
282 269 262 259 257 261 267 273 281 285 287 291 293 292 291 287 278 271 255 250 246 254 258 262 274 281 285 288 288 288 287 285 284 282 279 277 276 276 276 275 273 272 271 272 272 272 274 273 271
274 265 262 265 270 271 269 273 278 282 286 289 291 288 286 283 275 268 261 252 242 246 256 268 277 275 279 285 288 286 285 285 283 281 278 276 275 275 275 273 272 270 267 268 269 268 267 267 267
268 265 267 271 279 280 278 279 279 280 283 285 285 285 283 281 273 270 262 244 240 237 248 263 272 266 275 285 289 286 282 285 283 281 278 275 273 273 274 273 271 270 266 266 267 268 263 261 264
278 271 272 277 284 287 288 286 282 285 285 283 287 287 285 282 275 273 271 250 238 238 245 254 275 273 274 282 289 285 281 282 284 282 280 278 273 271 271 272 270 267 265 265 265 266 261 257 257
297 288 284 285 289 294 297 293 292 294 295 294 291 289 283 276 272 269 258 245 240 242 240 252 269 277 279 284 288 284 281 279 281 280 277 277 275 270 268 265 267 269 265 264 262 261 261 257 257
314 304 305 308 306 306 304 303 299 302 301 300 294 292 287 279 273 268 244 233 239 247 257 264 267 276 276 282 286 282 283 284 283 279 276 277 278 274 269 266 267 268 266 266 265 265 265 259 257
317 316 323 323 322 322 314 310 307 305 307 307 299 292 286 278 271 260 247 240 246 254 259 268 274 277 291 287 284 281 280 286 286 286 285 282 282 281 273 269 268 268 269 269 268 268 265 262 260
311 318 328 330 325 325 319 317 311 311 312 308 298 283 275 273 265 255 250 247 248 256 261 272 282 289 295 291 287 288 287 289 290 288 286 287 288 289 280 275 272 271 271 271 271 268 264 261 260
313 322 325 326 326 330 328 323 316 319 315 317 309 304 288 275 266 248 238 241 254 261 271 274 287 291 293 292 291 297 294 292 291 288 287 289 288 287 285 279 276 275 275 274 272 269 266 263 261
319 320 323 322 326 329 331 332 335 331 329 330 328 328 321 278 248 236 216 227 244 254 257 267 283 294 297 296 296 299 298 295 295 293 293 293 291 291 289 285 281 279 277 276 274 272 270 267 263
326 320 319 322 326 329 329 332 337 341 342 342 332 327 331 325 319 101 188 233 243 249 259 268 283 294 294 298 304 299 300 300 301 300 299 296 296 296 293 289 286 284 283 281 278 275 273 270 267
321 318 320 326 323 324 329 330 330 345 350 345 337 333 332 330 158 155 204 271 276 259 267 272 290 294 303 308 307 306 310 311 308 304 303 302 303 304 303 298 297 296 292 287 285 282 278 274 271
314 314 321 326 320 318 322 330 335 342 357 356 343 354 39 70 76 74 75 18 357 270 290 282 297 323 328 319 314 318 321 320 316 314 316 315 315 311 308 306 304 303 300 297 292 288 283 279 275
301 303 316 325 323 316 316 323 332 334 345 351 354 12 56 71 72 66 65 10 352 352 357 334 307 322 330 333 332 330 330 331 328 325 323 322 321 318 315 312 309 306 305 302 298 294 290 285 281
296 302 314 325 328 324 325 333 350 350 351 356 8 38 66 74 60 56 51 46 66 67 58 51 42 17 0 352 347 345 343 340 337 334 332 330 327 325 323 321 317 314 312 309 304 300 297 292 287
289 292 298 309 310 315 335 349 356 2 17 19 29 38 70 72 59 53 53 61 69 75 69 62 49 25 10 358 352 348 345 343 343 341 338 335 332 330 328 325 321 319 316 314 310 306 302 298 292
276 280 288 291 290 299 327 348 3 7 25 40 49 77 89 81 66 60 62 65 64 57 52 46 37 24 11 2 358 353 348 346 346 344 341 338 336 333 330 326 323 321 319 316 313 309 305 301 297
271 272 283 290 294 305 314 339 3 10 36 46 53 92 99 92 80 73 69 71 68 59 51 42 33 23 13 7 3 358 352 348 346 343 341 339 336 333 331 328 325 322 320 317 314 311 307 304 300
267 263 279 293 296 302 301 322 359 47 59 51 60 82 90 85 80 75 69 67 60 50 43 35 27 19 11 6 0 356 353 351 347 344 341 339 336 334 332 330 328 325 321 318 315 312 309 307 303
261 259 266 275 281 287 291 308 340 30 43 56 74 76 77 84 83 74 65 58 51 43 34 26 17 7 1 357 353 351 350 347 344 341 339 336 334 333 331 329 328 325 322 319 317 313 310 308 304
264 265 269 267 268 272 279 289 307 330 354 32 70 73 73 73 59 52 50 43 35 24 17 13 5 356 348 345 344 345 343 341 339 337 334 333 332 331 329 328 326 325 322 319 317 315 312 309 305
263 266 268 265 266 267 272 280 291 311 327 5 33 45 44 41 36 27 22 18 11 7 2 357 349 341 338 338 337 336 335 334 333 332 330 329 328 328 327 326 325 323 320 318 316 315 313 310 307
Height
5924 5923 5922 5922 5922 5921 5919 5917 5914 5912 5910 5908 5907 5908 5908 5910 5910 5911 5908 5907 5907 5907 5907 5906 5906 5907 5907 5907 5907 5907 5907 5906 5906 5906 5905 5905 5905 5904 5904 5903 5903 5902 5902 5901 5901 5901 5901 5901 5901
5922 5921 5921 5920 5919 5918 5917 5915 5913 5909 5909 5906 5905 5906 5905 5906 5907 5906 5905 5905 5905 5905 5906 5906 5906 5906 5906 5906 5906 5906 5905 5905 5905 5905 5905 5904 5904 5904 5903 5903 5902 5902 5901 5901 5901 5901 5901 5901 5901
5920 5919 5919 5918 5917 5915 5914 5912 5910 5908 5906 5905 5904 5905 5904 5904 5905 5903 5903 5903 5904 5904 5905 5905 5904 5904 5904 5905 5904 5904 5904 5904 5904 5904 5903 5903 5903 5903 5902 5902 5902 5901 5901 5901 5900 5900 5900 5900 5900
5918 5917 5917 5916 5914 5912 5910 5909 5907 5906 5904 5903 5902 5901 5901 5901 5901 5901 5901 5901 5901 5902 5903 5903 5903 5903 5903 5903 5903 5903 5903 5902 5902 5902 5902 5902 5901 5901 5901 5901 5901 5900 5900 5900 5899 5899 5900 5900 5900
5915 5915 5914 5914 5912 5909 5906 5905 5904 5904 5902 5901 5901 5900 5899 5899 5897 5898 5898 5898 5898 5899 5900 5901 5901 5901 5901 5901 5901 5901 5901 5900 5900 5900 5900 5900 5900 5900 5900 5900 5899 5899 5899 5899 5898 5898 5898 5899 5899
5914 5912 5912 5911 5909 5906 5904 5902 5902 5901 5901 5900 5899 5898 5896 5895 5894 5894 5895 5895 5896 5897 5898 5899 5899 5899 5899 5899 5899 5899 5898 5898 5897 5897 5897 5897 5898 5898 5898 5898 5898 5898 5897 5897 5897 5897 5897 5897 5897
5911 5910 5909 5908 5906 5903 5902 5900 5899 5898 5897 5896 5896 5894 5892 5891 5890 5889 5890 5892 5893 5894 5895 5896 5897 5897 5897 5897 5896 5896 5895 5895 5895 5894 5894 5895 5895 5895 5895 5895 5895 5895 5895 5895 5895 5895 5895 5895 5895
5907 5908 5906 5905 5903 5901 5899 5897 5896 5895 5894 5893 5892 5891 5890 5888 5886 5887 5886 5888 5890 5892 5893 5893 5894 5894 5894 5894 5893 5892 5892 5891 5891 5891 5891 5891 5892 5892 5892 5892 5892 5892 5893 5893 5892 5893 5893 5893 5893
5904 5905 5903 5901 5900 5898 5897 5894 5893 5892 5890 5889 5887 5887 5886 5884 5884 5884 5884 5885 5887 5889 5889 5890 5890 5890 5890 5890 5890 5889 5888 5888 5888 5888 5888 5888 5888 5888 5888 5888 5889 5889 5889 5889 5889 5889 5889 5890 5890
5902 5901 5900 5899 5897 5895 5894 5893 5891 5888 5886 5884 5882 5882 5882 5881 5881 5880 5881 5882 5883 5885 5886 5886 5886 5886 5887 5886 5886 5885 5885 5884 5884 5884 5884 5884 5884 5884 5884 5884 5884 5885 5885 5885 5885 5885 5886 5886 5887
5898 5898 5897 5896 5894 5892 5890 5890 5887 5884 5881 5880 5878 5878 5877 5876 5877 5877 5877 5878 5879 5880 5881 5882 5882 5882 5882 5883 5882 5881 5881 5881 5881 5880 5880 5880 5880 5880 5879 5879 5880 5880 5880 5881 5881 5881 5881 5882 5882
5896 5895 5894 5893 5891 5889 5887 5886 5883 5880 5877 5875 5874 5873 5872 5872 5873 5873 5873 5874 5875 5876 5877 5878 5879 5879 5879 5879 5879 5878 5878 5878 5877 5877 5876 5876 5876 5875 5875 5875 5875 5876 5876 5876 5877 5877 5877 5877 5878
5893 5892 5891 5890 5889 5887 5884 5881 5879 5876 5873 5871 5869 5869 5868 5869 5869 5869 5868 5869 5871 5872 5873 5874 5876 5876 5876 5876 5875 5875 5875 5874 5874 5873 5872 5872 5872 5871 5871 5871 5872 5872 5872 5872 5873 5873 5873 5873 5874
5891 5890 5889 5888 5886 5884 5881 5878 5875 5872 5869 5867 5865 5864 5864 5864 5865 5865 5864 5865 5867 5868 5870 5871 5872 5873 5873 5873 5873 5872 5872 5871 5870 5870 5869 5869 5868 5868 5867 5868 5868 5868 5868 5868 5869 5869 5869 5869 5869
5889 5889 5888 5885 5883 5880 5878 5875 5872 5869 5866 5863 5861 5859 5859 5860 5861 5861 5862 5863 5864 5866 5867 5868 5869 5870 5870 5870 5870 5870 5869 5868 5868 5867 5867 5866 5865 5864 5864 5864 5864 5864 5864 5864 5864 5864 5864 5864 5865
5888 5887 5885 5883 5880 5877 5876 5872 5870 5867 5864 5861 5859 5857 5856 5856 5857 5858 5859 5860 5862 5864 5865 5866 5866 5867 5868 5868 5867 5867 5866 5865 5865 5865 5864 5863 5862 5861 5861 5861 5860 5860 5860 5860 5860 5860 5860 5860 5860
5885 5883 5881 5880 5877 5874 5872 5870 5868 5864 5862 5859 5856 5855 5853 5854 5855 5856 5857 5859 5860 5861 5863 5863 5864 5865 5865 5865 5865 5864 5863 5863 5862 5862 5861 5860 5859 5858 5858 5857 5856 5856 5856 5855 5855 5855 5855 5855 5855
5882 5881 5879 5877 5875 5872 5870 5868 5866 5862 5859 5857 5855 5855 5853 5853 5854 5854 5855 5857 5859 5860 5861 5862 5862 5863 5863 5863 5862 5862 5861 5861 5860 5859 5858 5857 5856 5855 5854 5853 5853 5852 5851 5851 5850 5850 5849 5849 5849
5880 5879 5877 5875 5873 5871 5869 5867 5864 5861 5858 5856 5855 5854 5854 5854 5854 5854 5855 5856 5857 5858 5859 5860 5860 5861 5861 5860 5860 5859 5859 5858 5857 5856 5855 5854 5853 5852 5851 5850 5849 5848 5847 5846 5845 5845 5844 5844 5843
5877 5877 5875 5874 5872 5869 5867 5866 5863 5860 5858 5857 5856 5855 5854 5854 5855 5854 5854 5854 5854 5855 5856 5857 5858 5858 5858 5858 5858 5858 5857 5856 5854 5853 5852 5851 5850 5848 5847 5846 5845 5844 5842 5841 5840 5839 5839 5838 5837
5875 5875 5873 5872 5869 5867 5866 5865 5862 5860 5858 5857 5856 5856 5855 5854 5854 5854 5854 5854 5853 5854 5855 5855 5856 5856 5856 5856 5856 5856 5855 5853 5852 5851 5849 5848 5847 5845 5844 5842 5841 5840 5838 5837 5835 5834 5833 5832 5832
5873 5873 5872 5870 5868 5866 5865 5864 5862 5860 5859 5857 5856 5855 5854 5854 5854 5854 5854 5853 5853 5852 5853 5854 5855 5855 5855 5855 5854 5853 5852 5851 5850 5849 5847 5846 5844 5842 5841 5839 5837 5835 5834 5832 5831 5829 5828 5827 5825
5872 5871 5870 5869 5867 5865 5864 5862 5862 5859 5858 5857 5855 5854 5854 5854 5854 5854 5854 5853 5852 5852 5853 5853 5854 5854 5853 5853 5852 5851 5850 5849 5848 5846 5845 5843 5841 5839 5837 5835 5833 5831 5829 5827 5826 5824 5822 5821 5819
5869 5869 5868 5867 5866 5865 5863 5861 5861 5859 5857 5856 5855 5855 5854 5854 5854 5853 5853 5853 5852 5852 5853 5853 5853 5852 5852 5851 5850 5849 5848 5847 5846 5844 5842 5840 5838 5836 5834 5832 5830 5827 5825 5823 5821 5819 5817 5815 5813
5867 5867 5866 5865 5864 5863 5862 5860 5860 5858 5857 5856 5855 5854 5854 5854 5854 5853 5853 5853 5852 5852 5852 5851 5851 5851 5850 5849 5848 5847 5846 5845 5843 5841 5839 5837 5835 5833 5831 5828 5826 5823 5821 5818 5816 5813 5811 5809 5807
5864 5864 5864 5863 5861 5861 5860 5859 5859 5856 5856 5855 5854 5853 5853 5853 5853 5853 5853 5853 5852 5852 5851 5851 5850 5850 5849 5848 5847 5846 5844 5842 5841 5839 5837 5835 5832 5830 5827 5825 5822 5819 5816 5813 5810 5808 5805 5803 5800
5862 5861 5861 5860 5860 5859 5859 5858 5857 5855 5855 5854 5853 5853 5853 5853 5853 5853 5853 5852 5852 5851 5851 5850 5849 5849 5848 5846 5845 5844 5842 5840 5838 5836 5834 5832 5829 5827 5824 5821 5817 5814 5811 5808 5805 5802 5799 5796 5793
5860 5859 5859 5858 5857 5857 5857 5856 5856 5855 5854 5853 5853 5852 5852 5852 5852 5852 5852 5851 5851 5850 5850 5849 5848 5847 5846 5845 5843 5842 5840 5838 5836 5833 5831 5829 5826 5823 5820 5816 5813 5809 5806 5802 5799 5795 5792 5789 5786
5857 5856 5855 5855 5855 5855 5854 5856 5854 5853 5852 5852 5851 5851 5851 5851 5851 5850 5850 5850 5849 5849 5848 5847 5846 5845 5844 5843 5841 5840 5838 5835 5833 5831 5828 5825 5822 5819 5815 5812 5808 5804 5800 5796 5792 5788 5785 5781 5778
5853 5852 5852 5852 5852 5851 5851 5855 5852 5850 5849 5849 5849 5849 5849 5849 5849 5849 5849 5848 5847 5847 5846 5845 5844 5843 5842 5840 5838 5837 5834 5832 5830 5827 5824 5821 5818 5815 5811 5807 5803 5799 5794 5790 5785 5781 5777 5773 5769